Home   Weather   Grand Junction   Past weeks

Flag for USA Past Weather in Grand Junction, Colorado, USA — Yesterday and Last 2 Weeks

64 °F


Feels Like: 64 °F
Forecast: 46 / 71 °F
Wind: No wind

Location: Walker Field

Current Time: Oct 26, 2016 at 1:33:08 PM

Latest Report: Oct 26, 2016 at 12:53 PM

Visibility: 10 mi

Pressure: 30.25 "Hg (25.67 "Hg at 1398m altitude)

Humidity: 52%

Dew Point: 46 °F

Location of Grand JunctionLocation

Past Weather in Grand Junction — Graph


Grand Junction Temperature Yesterday

Maximum temperature yesterday: 65 °F (at 3:53 PM)
Minimum temperature yesterday: 50 °F (at 11:53 PM)
Average temperature yesterday: 56 °F

High & Low Weather Summary for the Past Weeks

High81 °F (Oct 15, 2:53 PM)100% (Oct 25, 12:53 AM)30.45 "Hg (Oct 25, 12:53 AM)
Low32 °F (Oct 20, 4:53 AM)12% (Oct 15, 3:53 PM)29.47 "Hg (Oct 17, 3:53 AM)
Average59 °F35%29.99 "Hg
* Reported Oct 11 11:53 AM — Oct 26 11:53 AM, Grand Junction, Weather by CustomWeather, © 2016

Note: Actual official high and low records may vary slightly from our data, if they occured in-between our weather recording intervals... More about our weather records


Grand Junction Weather History for the Previous 24 Hours

Scroll right to see more
Time TempWeatherWind HumidityBarometerVisibility
11:53 AM
Wed, Oct 26
60 °FSunny.6 mph58%30.29 "Hg10 mi
10:53 AM58 °FSunny.7 mph65%30.30 "Hg10 mi
9:53 AM54 °FSunny.10 mph77%30.32 "Hg10 mi
8:53 AM48 °FSunny.7 mph89%30.31 "Hg10 mi
7:53 AM42 °FSunny.3 mph100%30.30 "Hg10 mi
6:53 AM44 °FClear.3 mph96%30.27 "Hg10 mi
5:53 AM44 °FClear.5 mph100%30.25 "Hg10 mi
4:53 AM46 °FPassing clouds.5 mph96%30.21 "Hg10 mi
3:53 AM47 °FClear.5 mph93%30.20 "Hg10 mi
2:53 AM49 °FClear.8 mph90%30.19 "Hg10 mi
1:53 AM49 °FClear.7 mph90%30.20 "Hg10 mi
12:53 AM47 °FClear.5 mph100%30.20 "Hg10 mi
11:53 PM
Tue, Oct 25
50 °FClear.3 mph93%30.19 "Hg10 mi
10:53 PM51 °FClear.6 mph92%30.19 "Hg10 mi
9:53 PM52 °FClear.5 mph93%30.18 "Hg10 mi
8:53 PM53 °FClear.5 mph93%30.16 "Hg10 mi
7:53 PM54 °FClear.3 mph93%30.16 "Hg10 mi
6:53 PM57 °FClear.No wind87%30.12 "Hg10 mi
5:53 PM62 °FSunny.5 mph70%30.09 "Hg10 mi
4:53 PM65 °FSunny.3 mph61%30.08 "Hg10 mi
3:53 PM65 °FSunny.No wind59%30.08 "Hg10 mi
2:53 PM64 °FScattered clouds.5 mph68%30.08 "Hg10 mi
1:53 PM60 °FBroken clouds.No wind75%30.11 "Hg10 mi
Weather by CustomWeather, © 2016

See weather overviewHow to use our weather pages